Flag for Spain Weather past 2 weeks in Santander, Spain

Now
59 °F

Light rain. More clouds than sun.


Feels Like: 59 °F
Forecast: 57 / 66 °F
Wind: 1 mph from North

Location: Santander / Parayas

Current Time: Sep 4, 2015 at 9:59:02 PM

Latest Report: Sep 4, 2015 at 9:30 PM


Visibility: 4 mi

Pressure: 30.15 "Hg

Humidity: 88%

Dew point: 55 °F

Location of SantanderLocation

Historic Weather in Santander — Graph

°F

Santander temperature yesterday

Maximum temperature yesterday: 61 °F (at 12:00 PM)
Minimum temperature yesterday: 57 °F (at 7:30 AM)
Average temperature yesterday: 59 °F

Past Weeks' High & Low Weather Summary

 TemperatureHumidityPressure
High91 °F (Aug 27, 5:00 PM)100% (Aug 29, 7:00 AM)30.18 "Hg (Aug 29, 7:00 AM)
Low57 °F (Aug 25, 5:30 AM)28% (Aug 27, 5:00 PM)29.56 "Hg (Aug 23, 6:30 PM)
Average68 °F77%29.97 "Hg
* Reported Aug 20 8:00 PM — Sep 4 8:30 PM, Santander, Weather by CustomWeather, © 2015

Note: Actual official high and low records may vary slightly from our data, if they occured in-between our weather recording intervals... More about our weather records

Advertising

Santander weather history for previous 24 hours

 ConditionsComfort  
Time TempWeatherWind HumidityBarometerVisibility
8:30 PM
Fri, Sep 4
61 °FBroken clouds.2 mph83%30.12 "HgN/A
8:00 PM61 °FPartly sunny.5 mph83%30.12 "HgN/A
7:30 PM63 °FPartly sunny.3 mph77%30.12 "HgN/A
7:00 PM63 °FPartly sunny.2 mph77%30.12 "HgN/A
6:30 PM63 °FOvercast.2 mph77%30.12 "HgN/A
6:00 PM61 °FOvercast.5 mph83%30.12 "HgN/A
5:30 PM63 °FMore clouds than sun.No wind73%30.12 "HgN/A
5:00 PM63 °FPartly sunny.No wind73%30.12 "HgN/A
4:30 PM63 °FBroken clouds.3 mph77%30.12 "HgN/A
4:00 PM63 °FMore clouds than sun.6 mph77%30.12 "HgN/A
3:30 PM63 °FMore clouds than sun.3 mph73%30.12 "HgN/A
3:00 PM63 °FMostly cloudy.10 mph77%30.12 "HgN/A
2:30 PM64 °FMostly cloudy.2 mph73%30.12 "HgN/A
2:00 PM64 °FMore clouds than sun.2 mph73%30.12 "HgN/A
1:30 PM64 °FBroken clouds.1 mph68%30.12 "HgN/A
1:00 PM64 °FPartly sunny.2 mph73%30.12 "HgN/A
12:30 PM64 °FPartly sunny.2 mph73%30.12 "HgN/A
12:00 PM63 °FBroken clouds.5 mph73%30.12 "HgN/A
11:30 AM61 °FOvercast.No wind83%30.12 "HgN/A
11:00 AM59 °FOvercast.No wind88%30.12 "HgN/A
10:30 AM59 °FPartly sunny.3 mph88%30.12 "HgN/A
10:00 AM57 °FLow clouds.3 mph94%30.12 "HgN/A
9:30 AM57 °FDrizzle. More clouds than sun.No wind94%30.12 "Hg5 mi
9:00 AM57 °FDrizzle. Mostly cloudy.No wind94%30.12 "Hg5 mi
8:30 AM57 °FLight rain. Mostly cloudy.No wind88%30.09 "HgN/A
8:00 AM57 °FDrizzle. Mostly cloudy.No wind94%30.09 "Hg4 mi
7:30 AM57 °FOvercast.No wind94%30.09 "HgN/A
7:00 AM57 °FDrizzle. Overcast.No wind94%30.09 "Hg5 mi
6:30 AM57 °FOvercast.No wind88%30.09 "HgN/A
6:00 AM57 °FDrizzle. Overcast.No wind88%30.09 "Hg4 mi
5:30 AM57 °FOvercast.3 mph88%30.09 "HgN/A
11:00 PM
Thu, Sep 3
59 °FPassing clouds.8 mph88%30.12 "HgN/A
10:30 PM59 °FPassing clouds.7 mph88%30.12 "HgN/A
10:00 PM59 °FPassing clouds.6 mph94%30.12 "HgN/A
9:30 PM59 °FBroken clouds.5 mph94%30.12 "HgN/A
9:00 PM59 °FBroken clouds.5 mph94%30.12 "HgN/A
Weather by CustomWeather, © 2015

See weather overviewHow to use our weather pages